IRIDIUM 33 DEB, 33953

Orbit data source: Space-Track

IRIDIUM 33 DEB, 33953 is space debris in LEO originally from a launch on Sun, 14 Sep 1997 UTC launched from the Tyuratam Missile And Space Complex (TTMTR). The debris from Iridium 33, an American commercial communications satellite, has been tracked extensively since its accidental collision with the defunct Russian satellite Cosmos 2251 in 2009. This event, occurring at high speed in low Earth orbit (LEO), generated thousands of pieces of space debris, significantly increasing the risk of further collisions. The Iridium 33 debris cloud has impacted space traffic management and orbital debris mitigation strategies, making it a subject of ongoing study in space situational awareness.

Loading next visibility...
Identifier
33953, 1997-051BN
Orbit
LEO
Country
Flag of USUS
Related business
Manufacturer
Unknown
Mission
Spacecraft
Bus & Motor
Unknown
Mass
Unknown
Launch date (UTC)
1997-09-14 (29 years ago)
Launch vehicle
Unknown
Launch site
Tyuratam Missile And Space Complex (TTMTR)
Object type
Payload
Rocket body
Debris
Shape & HBR
Unknown shape, 0.1 m
Radar Cross Section
Small (<0.1 m²)

Expand to show TLE details & history
Last TLE update: 6 hours ago

TLE from 6 hours ago
0 IRIDIUM 33 DEB
1 33953U 97051BN  26120.46312799  .00003348  00000-0  74163-3 0  9999
2 33953  86.3879 353.5138 0016940   0.9063 114.2279 14.56840171903221
Epoch: 2026-04-30T11:06Z
TLE epoch observation values (Epoch: 2026-04-30T11:06:54.258Z)
Latitude
64.53716°
Longitude
140.80136°
Altitude
719.554 km
Speed
7.499 km/s
True Right ascension
11h 03m 44s
True Declination
64° 24' 10"
Sunlit
Object was in daylight at epoch
Visualization orbit readout
Latitude
Unknown
Longitude
Unknown
Altitude
Unknown
Speed
Unknown
Apparent Right ascension
Unknown
Apparent Declination
Unknown
Sunlit
N/A
Visualization observer readout
Local Sidereal Time
00:55:06
Azimuth
Unknown
Elevation
Unknown
Doppler factor
Unknown
Orbital elements
Apogee altitude
712.319 km
Perigee altitude
688.337 km
Semi-major axis
7,078.465 km
Eccentricity
0.00169
Inclination
86.3879°
RAAN
353.5138°
Arg. of periapsis
0.9063°
True anomaly
114.40477°
Mean anomaly
114.2279°
Eccentric anomaly
114.31635°
Mean motion
3.64447 °/min
Orbital period
98.78 mins
BSTAR
0.00074163
Loading maneuver chart data...
Computing Atmospheric mass density...
Loading historical data...
Loading historical data...
Loading historical data...
Loading historical data...
Loading historical data...
Loading historical data...
Loading historical data...

Documentation

Showing up to 5 results
|